Location: CCZU
(31.6840°N, 119.9550°E)
Time: 17:25:23
(UTC+08:00)

Tiangong - Pass Details

Date: 14 December 2021
Orbit: 381 x 387 km, 41.5° (Epoch: 27 January)

Event Time Altitude Azimuth Distance (km) Brightness Sun altitude
Rises 18:01:28 0° 299° (WNW) 2,283 5.6 -13.3°
Reaches altitude 10° 18:04:17 10° 326° (NW) 1,426 4.1 -13.8°
Maximum altitude 18:06:06 14° 0° (N) 1,203 3.4 -14.2°
Enters shadow 18:06:43 14° 13° (NNE) 1,229 3.3 -14.3°
